Location: Bergen
(60.3910°N, 5.3250°E)
Time: 04:10:33
(UTC+01:00)

ISS - Visible Passes

Search period start: 28 February 2017 00:00
Search period end: 10 March 2017 00:00
Orbit: 399 x 408 km, 51.6° (Epoch: 28 February)

Date Brightness Start Highest point End Pass type
(mag) Time Alt. Az. Time Alt. Az. Time Alt. Az.
06 Mar -0.4 06:23:29 10° S 06:24:26 11° SSE 06:25:23 10° SE visible
08 Mar -0.7 06:13:19 10° SSW 06:15:11 14° SSE 06:17:04 10° SE visible
09 Mar -0.7 05:21:32 10° S 05:22:49 12° SSE 05:24:06 10° SE visible
